sat.trackr.live / text

‹ back to catalog

STARLINK-30532

NORAD 58070 · 2023-158V

PAYLOAD ACTIVE UNKNOWN

§ Identity

Operator
Country
US
Launch date
2023-10-13
Launch site
AFETR
Launch vehicle
Mass (kg)
RCS (m²)

Purposes: comms

External: N2YO · Heavens-Above · Gunter

§ Orbital elements

Epoch: 2026-09-20T13:36:09.869760Z

Period
94.27 min
Inclination
43.0032°
Eccentricity
0.0001397
Mean motion
15.27582712 rev/d
Perigee alt
482.1 km
Apogee alt
484.0 km
Semi-major
6,861.2 km
B*
4.6476e-5
RAAN
6.5053°
Arg perigee
267.3475°
Mean anomaly
92.7216°
Rev number
16,337

§ Raw data

STARLINK-305321 58070U 23158V   26263.56678090  .00001017  00000+0  46476-4 0  99982 58070  43.0032   6.5053 0001397 267.3475  92.7216 15.27582712163374

JSON: /api/v1/satellites/58070 · /tle

For live sub-satellite position, see the globe view (requires WebGL).

§ Visibility from observer

Set your observer location to see the next 7 days of passes ≥ 10°. The values pass through the URL so the page stays shareable.

No JS? Fill the form by hand. The geolocation button needs JavaScript.